Time,TemperatureF,DewpointF,PressureIn,WindDirection,WindDirectionDegrees,WindSpeedMPH,WindSpeedGustMPH,Humidity,HourlyPrecipIn,Conditions,Clouds,dailyrainin,SoftwareType,DateUTC
2013-07-14 00:05:00,66.4,65.5,30.18,NNE,32,0.0,5.0,97,0.00,,,0.00,Wunderground v.1.15,2013-07-14 04:05:00,
2013-07-14 00:10:00,66.4,65.5,30.18,NNE,32,0.0,5.0,97,0.00,,,0.00,Wunderground v.1.15,2013-07-14 04:10:00,
2013-07-14 00:15:00,66.4,65.5,30.18,NNE,32,0.0,5.0,97,0.00,,,0.00,Wunderground v.1.15,2013-07-14 04:15:00,
2013-07-14 00:20:00,66.4,65.5,30.18,NNE,32,0.0,5.0,97,0.00,,,0.00,Wunderground v.1.15,2013-07-14 04:20:00,
2013-07-14 00:25:00,66.4,65.5,30.18,NNE,32,0.0,5.0,97,0.00,,,0.00,Wunderground v.1.15,2013-07-14 04:25:00,
2013-07-14 00:30:00,66.5,65.6,30.18,NNE,32,0.0,5.0,97,0.32,,,0.02,Wunderground v.1.15,2013-07-14 04:30:00,
2013-07-14 00:35:00,66.5,65.6,30.18,NNE,32,0.0,5.0,97,0.14,,,0.03,Wunderground v.1.15,2013-07-14 04:35:00,
2013-07-14 00:40:00,66.5,65.6,30.18,NNE,32,0.0,5.0,97,0.12,,,0.04,Wunderground v.1.15,2013-07-14 04:40:00,
2013-07-14 00:45:00,66.5,65.6,30.18,NNE,32,0.0,5.0,97,0.06,,,0.04,Wunderground v.1.15,2013-07-14 04:45:00,
2013-07-14 00:50:00,66.5,65.9,30.19,NNE,32,0.0,5.0,98,0.04,,,0.04,Wunderground v.1.15,2013-07-14 04:50:00,
2013-07-14 00:55:00,66.5,65.9,30.19,NNE,32,0.0,5.0,98,0.00,,,0.04,Wunderground v.1.15,2013-07-14 04:55:00,
2013-07-14 01:05:00,66.5,65.9,30.19,NNE,32,0.0,5.0,98,0.00,,,0.05,Wunderground v.1.15,2013-07-14 05:05:00,
2013-07-14 01:10:00,66.5,65.9,30.18,NNE,32,0.0,5.0,98,0.05,,,0.06,Wunderground v.1.15,2013-07-14 05:10:00,
2013-07-14 01:15:00,66.5,65.9,30.18,NNE,32,0.0,5.0,98,0.31,,,0.09,Wunderground v.1.15,2013-07-14 05:15:00,
2013-07-14 01:20:00,66.5,65.9,30.18,NNE,32,0.0,5.0,98,0.17,,,0.10,Wunderground v.1.15,2013-07-14 05:20:00,
2013-07-14 01:25:00,66.4,65.8,30.17,NNE,32,0.0,5.0,98,0.07,,,0.10,Wunderground v.1.15,2013-07-14 05:25:00,
2013-07-14 01:30:00,66.5,65.9,30.18,NNE,32,0.0,5.0,98,0.04,,,0.10,Wunderground v.1.15,2013-07-14 05:30:00,
2013-07-14 01:35:00,66.5,65.9,30.18,SSW,197,0.0,5.0,98,0.00,,,0.10,Wunderground v.1.15,2013-07-14 05:35:00,
2013-07-14 01:40:00,66.5,65.9,30.17,SSW,197,0.0,5.0,98,0.00,,,0.10,Wunderground v.1.15,2013-07-14 05:40:00,
2013-07-14 01:45:00,66.5,65.9,30.18,SSW,197,0.0,5.0,98,0.00,,,0.10,Wunderground v.1.15,2013-07-14 05:45:00,
2013-07-14 01:50:00,66.6,66.0,30.18,SSW,197,0.0,5.0,98,0.00,,,0.10,Wunderground v.1.15,2013-07-14 05:50:00,
2013-07-14 01:55:00,66.7,66.1,30.18,SSW,197,0.0,5.0,98,0.00,,,0.10,Wunderground v.1.15,2013-07-14 05:55:00,
2013-07-14 02:05:00,66.8,66.5,30.18,SSE,152,0.0,5.0,99,0.00,,,0.10,Wunderground v.1.15,2013-07-14 06:05:00,
2013-07-14 02:10:00,66.8,66.5,30.18,SSE,152,0.0,5.0,99,0.00,,,0.11,Wunderground v.1.15,2013-07-14 06:10:00,
2013-07-14 02:15:00,66.9,66.6,30.18,SSE,152,0.0,5.0,99,0.00,,,0.11,Wunderground v.1.15,2013-07-14 06:15:00,
2013-07-14 02:20:00,66.9,66.6,30.18,SSE,152,0.0,5.0,99,0.00,,,0.11,Wunderground v.1.15,2013-07-14 06:20:00,
2013-07-14 02:25:00,66.9,66.6,30.18,WSW,244,0.0,5.0,99,0.00,,,0.11,Wunderground v.1.15,2013-07-14 06:25:00,
2013-07-14 02:30:00,66.9,66.6,30.17,WSW,244,0.0,5.0,99,0.00,,,0.11,Wunderground v.1.15,2013-07-14 06:30:00,
2013-07-14 02:35:00,66.9,66.6,30.18,WSW,244,0.0,5.0,99,0.00,,,0.11,Wunderground v.1.15,2013-07-14 06:35:00,
2013-07-14 02:40:00,66.9,66.6,30.18,WSW,244,0.0,5.0,99,0.00,,,0.11,Wunderground v.1.15,2013-07-14 06:40:00,
2013-07-14 02:45:00,67.0,66.7,30.17,WSW,244,0.0,5.0,99,0.00,,,0.11,Wunderground v.1.15,2013-07-14 06:45:00,
2013-07-14 02:50:00,67.0,66.7,30.17,WSW,244,0.0,5.0,99,0.00,,,0.11,Wunderground v.1.15,2013-07-14 06:50:00,
2013-07-14 02:55:00,67.0,66.7,30.17,WSW,244,0.0,5.0,99,0.00,,,0.11,Wunderground v.1.15,2013-07-14 06:55:00,
2013-07-14 03:05:00,67.0,66.7,30.17,WSW,244,0.0,5.0,99,0.00,,,0.11,Wunderground v.1.15,2013-07-14 07:05:00,
2013-07-14 03:10:00,67.0,66.7,30.17,WSW,244,0.0,5.0,99,0.00,,,0.11,Wunderground v.1.15,2013-07-14 07:10:00,
2013-07-14 03:15:00,67.0,66.7,30.17,WSW,244,0.0,5.0,99,0.00,,,0.11,Wunderground v.1.15,2013-07-14 07:15:00,
2013-07-14 03:20:00,67.0,66.7,30.17,WSW,244,0.0,5.0,99,0.00,,,0.11,Wunderground v.1.15,2013-07-14 07:20:00,
2013-07-14 03:25:00,67.1,66.8,30.17,WSW,244,0.0,5.0,99,0.00,,,0.11,Wunderground v.1.15,2013-07-14 07:25:00,
2013-07-14 03:30:00,67.1,66.8,30.17,WSW,244,0.0,5.0,99,0.00,,,0.12,Wunderground v.1.15,2013-07-14 07:30:00,
2013-07-14 03:35:00,67.1,66.8,30.17,WSW,244,0.0,5.0,99,0.00,,,0.12,Wunderground v.1.15,2013-07-14 07:35:00,
2013-07-14 03:40:00,67.1,66.8,30.17,SW,218,0.0,5.0,99,0.00,,,0.12,Wunderground v.1.15,2013-07-14 07:40:00,
2013-07-14 03:45:00,67.1,66.8,30.17,SW,225,0.0,5.0,99,0.00,,,0.12,Wunderground v.1.15,2013-07-14 07:45:00,
2013-07-14 03:50:00,67.2,66.9,30.17,SW,225,0.0,5.0,99,0.00,,,0.12,Wunderground v.1.15,2013-07-14 07:50:00,
2013-07-14 03:55:00,67.2,66.9,30.17,West,280,0.0,5.0,99,0.00,,,0.12,Wunderground v.1.15,2013-07-14 07:55:00,
2013-07-14 04:05:00,67.2,66.9,30.17,WNW,294,0.0,5.0,99,0.00,,,0.12,Wunderground v.1.15,2013-07-14 08:05:00,
2013-07-14 04:10:00,67.2,66.9,30.17,NW,304,0.0,5.0,99,0.00,,,0.12,Wunderground v.1.15,2013-07-14 08:10:00,
2013-07-14 04:15:00,67.2,66.9,30.18,NNW,342,0.0,5.0,99,0.00,,,0.12,Wunderground v.1.15,2013-07-14 08:15:00,
2013-07-14 04:20:00,67.2,66.9,30.18,NNW,342,0.0,5.0,99,0.00,,,0.12,Wunderground v.1.15,2013-07-14 08:20:00,
2013-07-14 04:25:00,67.2,66.9,30.18,NNW,342,0.0,5.0,99,0.00,,,0.12,Wunderground v.1.15,2013-07-14 08:25:00,
2013-07-14 04:30:00,67.2,66.9,30.18,NNW,341,0.0,5.0,99,0.00,,,0.12,Wunderground v.1.15,2013-07-14 08:30:00,
2013-07-14 04:40:00,67.2,66.9,30.18,NNW,341,0.0,5.0,99,0.00,,,0.13,Wunderground v.1.15,2013-07-14 08:40:00,
2013-07-14 04:45:00,67.2,66.9,30.18,NNW,341,0.0,5.0,99,0.09,,,0.14,Wunderground v.1.15,2013-07-14 08:45:00,
2013-07-14 04:50:00,67.2,66.9,30.18,ESE,122,0.0,5.0,99,0.16,,,0.15,Wunderground v.1.15,2013-07-14 08:50:00,
2013-07-14 04:55:00,67.2,66.9,30.18,NW,320,1.0,5.0,99,0.11,,,0.16,Wunderground v.1.15,2013-07-14 08:55:00,
2013-07-14 05:05:00,67.2,66.9,30.19,WNW,290,1.0,5.0,99,0.05,,,0.16,Wunderground v.1.15,2013-07-14 09:05:00,
2013-07-14 05:10:00,67.2,66.9,30.19,WNW,290,0.0,5.0,99,0.00,,,0.16,Wunderground v.1.15,2013-07-14 09:10:00,
2013-07-14 05:15:00,67.2,66.9,30.19,SE,129,0.0,5.0,99,0.00,,,0.16,Wunderground v.1.15,2013-07-14 09:15:00,
2013-07-14 05:20:00,67.2,66.9,30.19,SE,129,0.0,5.0,99,0.00,,,0.16,Wunderground v.1.15,2013-07-14 09:20:00,
2013-07-14 05:30:00,67.2,66.9,30.19,WNW,285,0.0,5.0,99,0.00,,,0.16,Wunderground v.1.15,2013-07-14 09:30:00,
2013-07-14 05:35:00,67.2,66.9,30.20,WNW,285,0.0,5.0,99,0.00,,,0.16,Wunderground v.1.15,2013-07-14 09:35:00,
2013-07-14 05:40:00,67.2,66.9,30.19,WNW,294,0.0,5.0,99,0.00,,,0.16,Wunderground v.1.15,2013-07-14 09:40:00,
2013-07-14 05:45:00,67.2,66.9,30.20,WNW,294,0.0,5.0,99,0.00,,,0.16,Wunderground v.1.15,2013-07-14 09:45:00,
2013-07-14 05:50:00,67.1,66.8,30.19,WSW,254,0.0,5.0,99,0.00,,,0.16,Wunderground v.1.15,2013-07-14 09:50:00,
2013-07-14 05:55:00,67.1,66.8,30.20,West,269,1.0,1.0,99,0.00,,,0.16,Wunderground v.1.15,2013-07-14 09:55:00,
2013-07-14 06:05:00,67.0,66.7,30.20,West,269,0.0,5.0,99,0.00,,,0.16,Wunderground v.1.15,2013-07-14 10:05:00,
2013-07-14 06:10:00,67.0,66.7,30.20,West,269,0.0,5.0,99,0.00,,,0.16,Wunderground v.1.15,2013-07-14 10:10:00,
2013-07-14 06:15:00,67.0,66.7,30.20,WSW,243,0.0,5.0,99,0.00,,,0.16,Wunderground v.1.15,2013-07-14 10:15:00,
2013-07-14 06:20:00,67.0,66.7,30.21,WSW,244,0.0,5.0,99,0.00,,,0.16,Wunderground v.1.15,2013-07-14 10:20:00,
2013-07-14 06:25:00,66.9,66.6,30.21,South,169,0.0,5.0,99,0.00,,,0.16,Wunderground v.1.15,2013-07-14 10:25:00,
2013-07-14 06:30:00,66.9,66.6,30.21,SSE,168,1.0,5.0,99,0.56,,,0.19,Wunderground v.1.15,2013-07-14 10:30:00,
2013-07-14 06:35:00,66.9,66.6,30.22,South,184,1.0,1.0,99,1.31,,,0.25,Wunderground v.1.15,2013-07-14 10:35:00,
2013-07-14 06:40:00,66.9,66.6,30.22,WSW,240,1.0,5.0,99,1.03,,,0.35,Wunderground v.1.15,2013-07-14 10:40:00,
2013-07-14 06:45:00,66.9,66.6,30.22,WSW,252,1.0,5.0,99,0.35,,,0.37,Wunderground v.1.15,2013-07-14 10:45:00,
2013-07-14 06:50:00,66.8,66.5,30.23,WSW,250,1.0,5.0,99,0.24,,,0.40,Wunderground v.1.15,2013-07-14 10:50:00,
2013-07-14 06:55:00,66.8,66.5,30.23,WSW,250,0.0,5.0,99,0.55,,,0.44,Wunderground v.1.15,2013-07-14 10:55:00,
2013-07-14 07:05:00,66.8,66.5,30.23,WNW,282,1.0,1.0,99,0.23,,,0.47,Wunderground v.1.15,2013-07-14 11:05:00,
2013-07-14 07:10:00,66.8,66.5,30.23,WNW,282,1.0,5.0,99,0.09,,,0.47,Wunderground v.1.15,2013-07-14 11:10:00,
2013-07-14 07:15:00,66.8,66.5,30.23,WNW,282,0.0,5.0,99,0.09,,,0.48,Wunderground v.1.15,2013-07-14 11:15:00,
2013-07-14 07:20:00,66.8,66.5,30.23,WNW,295,0.0,5.0,99,0.06,,,0.48,Wunderground v.1.15,2013-07-14 11:20:00,
2013-07-14 07:25:00,66.7,66.4,30.24,SW,229,1.0,1.0,99,0.04,,,0.48,Wunderground v.1.15,2013-07-14 11:25:00,
2013-07-14 07:30:00,66.7,66.4,30.23,SW,236,1.0,5.0,99,0.00,,,0.48,Wunderground v.1.15,2013-07-14 11:30:00,
2013-07-14 07:35:00,66.7,66.4,30.23,SW,236,0.0,5.0,99,0.00,,,0.48,Wunderground v.1.15,2013-07-14 11:35:00,
2013-07-14 07:40:00,66.7,66.4,30.23,WSW,240,0.0,5.0,99,0.00,,,0.48,Wunderground v.1.15,2013-07-14 11:40:00,
2013-07-14 07:45:00,66.7,66.4,30.24,WSW,243,0.0,5.0,99,0.00,,,0.48,Wunderground v.1.15,2013-07-14 11:45:00,
2013-07-14 07:50:00,66.7,66.4,30.24,WSW,242,0.0,5.0,99,0.00,,,0.48,Wunderground v.1.15,2013-07-14 11:50:00,
2013-07-14 07:55:00,66.7,66.4,30.24,SW,234,0.0,5.0,99,0.00,,,0.48,Wunderground v.1.15,2013-07-14 11:55:00,
2013-07-14 08:05:00,66.7,66.4,30.24,SSE,163,1.0,1.0,99,0.00,,,0.48,Wunderground v.1.15,2013-07-14 12:05:00,
2013-07-14 08:15:00,66.7,66.4,30.24,SSE,148,0.0,5.0,99,0.00,,,0.48,Wunderground v.1.15,2013-07-14 12:15:00,
2013-07-14 08:20:00,66.7,66.4,30.25,SSE,148,0.0,5.0,99,0.00,,,0.48,Wunderground v.1.15,2013-07-14 12:20:00,
2013-07-14 08:30:00,66.7,66.4,30.25,SW,226,0.0,5.0,99,0.00,,,0.48,Wunderground v.1.15,2013-07-14 12:30:00,
2013-07-14 08:35:00,66.8,66.5,30.25,SW,226,0.0,5.0,99,0.00,,,0.48,Wunderground v.1.15,2013-07-14 12:35:00,
2013-07-14 08:45:00,66.7,66.4,30.25,SW,228,0.0,5.0,99,0.00,,,0.48,Wunderground v.1.15,2013-07-14 12:45:00,
2013-07-14 08:55:00,66.7,66.4,30.26,WSW,250,0.0,5.0,99,0.00,,,0.48,Wunderground v.1.15,2013-07-14 12:55:00,
2013-07-14 09:05:00,66.7,66.4,30.26,WSW,258,0.0,5.0,99,0.00,,,0.48,Wunderground v.1.15,2013-07-14 13:05:00,
2013-07-14 09:10:00,66.7,66.4,30.26,WSW,258,0.0,5.0,99,0.00,,,0.48,Wunderground v.1.15,2013-07-14 13:10:00,
2013-07-14 09:15:00,66.8,66.5,30.26,WSW,258,0.0,5.0,99,0.00,,,0.48,Wunderground v.1.15,2013-07-14 13:15:00,
2013-07-14 09:20:00,66.8,66.8,30.26,WSW,258,0.0,5.0,100,0.20,,,0.49,Wunderground v.1.15,2013-07-14 13:20:00,
2013-07-14 09:25:00,66.8,66.8,30.26,WSW,258,0.0,5.0,100,0.12,,,0.50,Wunderground v.1.15,2013-07-14 13:25:00,
2013-07-14 09:30:00,66.8,66.8,30.26,SW,225,1.0,5.0,100,0.06,,,0.50,Wunderground v.1.15,2013-07-14 13:30:00,
2013-07-14 09:35:00,66.8,66.8,30.26,NW,321,1.0,1.0,100,0.21,,,0.52,Wunderground v.1.15,2013-07-14 13:35:00,
2013-07-14 09:40:00,66.9,66.9,30.26,NW,321,0.0,5.0,100,0.11,,,0.52,Wunderground v.1.15,2013-07-14 13:40:00,
2013-07-14 09:50:00,67.2,66.9,30.26,West,269,1.0,5.0,99,0.04,,,0.52,Wunderground v.1.15,2013-07-14 13:50:00,
2013-07-14 09:55:00,67.3,67.0,30.26,WSW,248,1.0,5.0,99,0.00,,,0.52,Wunderground v.1.15,2013-07-14 13:55:00,
2013-07-14 10:05:00,67.4,67.1,30.26,West,273,1.0,1.0,99,0.00,,,0.52,Wunderground v.1.15,2013-07-14 14:05:00,
2013-07-14 10:10:00,67.4,67.4,30.27,West,273,1.0,5.0,100,0.00,,,0.52,Wunderground v.1.15,2013-07-14 14:10:00,
2013-07-14 10:15:00,67.5,67.5,30.26,North,360,1.0,1.0,100,0.00,,,0.52,Wunderground v.1.15,2013-07-14 14:15:00,
2013-07-14 10:25:00,67.4,67.1,30.27,NW,319,2.0,2.0,99,0.00,,,0.53,Wunderground v.1.15,2013-07-14 14:25:00,
2013-07-14 10:30:00,67.4,67.1,30.27,WSW,254,2.0,5.0,99,0.17,,,0.54,Wunderground v.1.15,2013-07-14 14:30:00,
2013-07-14 10:35:00,67.1,66.8,30.27,WSW,257,2.0,5.0,99,0.28,,,0.56,Wunderground v.1.15,2013-07-14 14:35:00,
2013-07-14 10:40:00,67.1,67.1,30.27,WSW,257,1.0,5.0,100,0.09,,,0.57,Wunderground v.1.15,2013-07-14 14:40:00,
2013-07-14 10:45:00,67.0,67.0,30.28,WSW,252,1.0,1.0,100,0.09,,,0.57,Wunderground v.1.15,2013-07-14 14:45:00,
2013-07-14 10:50:00,67.1,66.8,30.28,West,268,1.0,5.0,99,0.06,,,0.57,Wunderground v.1.15,2013-07-14 14:50:00,
2013-07-14 10:55:00,67.1,66.8,30.28,West,265,1.0,5.0,99,0.04,,,0.57,Wunderground v.1.15,2013-07-14 14:55:00,
2013-07-14 11:01:00,67.1,66.8,30.28,NNW,327,2.0,5.0,99,0.00,,,0.57,Wunderground v.1.15,2013-07-14 15:01:00,
2013-07-14 11:05:00,67.1,66.8,30.28,SW,221,2.0,5.0,99,0.00,,,0.57,Wunderground v.1.15,2013-07-14 15:05:00,
2013-07-14 11:10:00,67.1,67.1,30.28,WNW,288,2.0,2.0,100,0.00,,,0.57,Wunderground v.1.15,2013-07-14 15:10:00,
2013-07-14 11:15:00,67.2,66.9,30.29,West,275,2.0,5.0,99,0.00,,,0.57,Wunderground v.1.15,2013-07-14 15:15:00,
2013-07-14 11:20:00,67.3,67.0,30.29,SSW,210,2.0,2.0,99,0.00,,,0.57,Wunderground v.1.15,2013-07-14 15:20:00,
2013-07-14 11:25:00,67.2,66.9,30.29,SSW,213,1.0,5.0,99,0.00,,,0.57,Wunderground v.1.15,2013-07-14 15:25:00,
2013-07-14 11:30:00,67.1,66.8,30.29,NW,321,1.0,5.0,99,0.00,,,0.57,Wunderground v.1.15,2013-07-14 15:30:00,
2013-07-14 11:35:00,66.9,66.9,30.29,NW,311,1.0,5.0,100,0.00,,,0.57,Wunderground v.1.15,2013-07-14 15:35:00,
2013-07-14 11:40:00,66.8,66.8,30.29,West,271,1.0,5.0,100,0.00,,,0.57,Wunderground v.1.15,2013-07-14 15:40:00,
2013-07-14 11:45:00,66.8,66.8,30.29,West,269,1.0,5.0,100,0.00,,,0.57,Wunderground v.1.15,2013-07-14 15:45:00,
2013-07-14 11:50:00,66.8,66.8,30.30,WSW,247,1.0,5.0,100,0.00,,,0.57,Wunderground v.1.15,2013-07-14 15:50:00,
2013-07-14 11:55:00,66.9,66.9,30.30,West,275,2.0,5.0,100,0.00,,,0.57,Wunderground v.1.15,2013-07-14 15:55:00,
2013-07-14 12:05:00,67.7,67.7,30.29,SW,231,1.0,1.0,100,0.00,,,0.57,Wunderground v.1.15,2013-07-14 16:05:00,
2013-07-14 12:10:00,68.1,68.1,30.30,SW,231,0.0,5.0,100,0.00,,,0.57,Wunderground v.1.15,2013-07-14 16:10:00,
2013-07-14 12:15:00,68.3,68.3,30.29,SW,231,0.0,5.0,100,0.00,,,0.57,Wunderground v.1.15,2013-07-14 16:15:00,
2013-07-14 12:20:00,68.3,68.3,30.29,South,175,0.0,5.0,100,0.00,,,0.57,Wunderground v.1.15,2013-07-14 16:20:00,
2013-07-14 12:25:00,68.0,68.0,30.29,SSE,157,1.0,5.0,100,0.00,,,0.57,Wunderground v.1.15,2013-07-14 16:25:00,
2013-07-14 12:30:00,67.9,67.9,30.29,SSW,207,1.0,5.0,100,0.00,,,0.57,Wunderground v.1.15,2013-07-14 16:30:00,
2013-07-14 12:35:00,68.4,68.4,30.29,ENE,78,1.0,1.0,100,0.00,,,0.57,Wunderground v.1.15,2013-07-14 16:35:00,
2013-07-14 12:40:00,68.7,68.7,30.29,East,92,1.0,2.0,100,0.00,,,0.57,Wunderground v.1.15,2013-07-14 16:40:00,
2013-07-14 12:45:00,68.6,68.6,30.29,ESE,106,0.0,5.0,100,0.00,,,0.57,Wunderground v.1.15,2013-07-14 16:45:00,
2013-07-14 12:50:00,68.6,68.6,30.29,SSE,159,0.0,5.0,100,0.00,,,0.57,Wunderground v.1.15,2013-07-14 16:50:00,
2013-07-14 12:55:00,68.3,68.3,30.29,East,84,0.0,5.0,100,0.00,,,0.58,Wunderground v.1.15,2013-07-14 16:55:00,
2013-07-14 13:01:00,68.2,68.2,30.28,WSW,238,1.0,5.0,100,0.00,,,0.58,Wunderground v.1.15,2013-07-14 17:01:00,
2013-07-14 13:05:00,68.1,68.1,30.28,South,188,0.0,5.0,100,0.20,,,0.60,Wunderground v.1.15,2013-07-14 17:05:00,
2013-07-14 13:10:00,67.9,67.6,30.28,SSW,208,1.0,5.0,99,0.31,,,0.64,Wunderground v.1.15,2013-07-14 17:10:00,
2013-07-14 13:15:00,67.8,67.5,30.28,South,189,2.0,5.0,99,0.12,,,0.65,Wunderground v.1.15,2013-07-14 17:15:00,
2013-07-14 13:20:00,67.7,67.4,30.29,South,188,3.0,3.0,99,0.09,,,0.65,Wunderground v.1.15,2013-07-14 17:20:00,
2013-07-14 13:25:00,68.1,68.1,30.29,WNW,290,2.0,5.0,100,0.05,,,0.65,Wunderground v.1.15,2013-07-14 17:25:00,
2013-07-14 13:30:00,68.5,68.2,30.29,West,274,1.0,1.0,99,0.04,,,0.65,Wunderground v.1.15,2013-07-14 17:30:00,
2013-07-14 13:35:00,68.4,68.1,30.29,West,275,2.0,2.0,99,0.00,,,0.65,Wunderground v.1.15,2013-07-14 17:35:00,
2013-07-14 13:40:00,68.4,68.1,30.29,WSW,257,2.0,2.0,99,0.00,,,0.65,Wunderground v.1.15,2013-07-14 17:40:00,
2013-07-14 13:45:00,68.2,68.2,30.28,SE,143,2.0,5.0,100,0.00,,,0.65,Wunderground v.1.15,2013-07-14 17:45:00,
2013-07-14 13:50:00,68.0,68.0,30.29,SW,232,2.0,2.0,100,0.54,,,0.68,Wunderground v.1.15,2013-07-14 17:50:00,
2013-07-14 13:55:00,67.7,67.4,30.29,NNW,345,2.0,5.0,99,0.27,,,0.70,Wunderground v.1.15,2013-07-14 17:55:00,
2013-07-14 14:01:00,67.6,67.3,30.30,West,265,2.0,2.0,99,0.09,,,0.71,Wunderground v.1.15,2013-07-14 18:01:00,
2013-07-14 14:10:00,67.5,67.2,30.30,WSW,252,1.0,5.0,99,0.06,,,0.71,Wunderground v.1.15,2013-07-14 18:10:00,
2013-07-14 14:15:00,67.4,67.1,30.30,ENE,66,1.0,5.0,99,0.04,,,0.71,Wunderground v.1.15,2013-07-14 18:15:00,
2013-07-14 14:20:00,67.2,66.9,30.30,WNW,301,2.0,2.0,99,0.00,,,0.71,Wunderground v.1.15,2013-07-14 18:20:00,
2013-07-14 14:25:00,67.2,66.9,30.30,West,266,2.0,5.0,99,0.00,,,0.71,Wunderground v.1.15,2013-07-14 18:25:00,
2013-07-14 14:30:00,67.3,67.0,30.30,West,263,1.0,5.0,99,0.00,,,0.71,Wunderground v.1.15,2013-07-14 18:30:00,
2013-07-14 14:35:00,67.4,67.1,30.30,West,267,1.0,5.0,99,0.00,,,0.72,Wunderground v.1.15,2013-07-14 18:35:00,
2013-07-14 14:40:00,67.5,67.2,30.30,WSW,251,1.0,1.0,99,0.00,,,0.72,Wunderground v.1.15,2013-07-14 18:40:00,
2013-07-14 14:50:00,67.2,66.9,30.30,SSW,211,1.0,1.0,99,0.00,,,0.72,Wunderground v.1.15,2013-07-14 18:50:00,
2013-07-14 14:55:00,67.2,66.9,30.30,West,263,1.0,3.0,99,0.00,,,0.73,Wunderground v.1.15,2013-07-14 18:55:00,
2013-07-14 15:05:00,67.3,67.0,30.30,NNW,346,1.0,1.0,99,0.18,,,0.76,Wunderground v.1.15,2013-07-14 19:05:00,
2013-07-14 15:10:00,67.5,67.2,30.30,WSW,242,1.0,5.0,99,0.07,,,0.76,Wunderground v.1.15,2013-07-14 19:10:00,
2013-07-14 15:15:00,67.5,67.2,30.30,SW,223,1.0,5.0,99,0.05,,,0.76,Wunderground v.1.15,2013-07-14 19:15:00,
2013-07-14 15:20:00,67.6,67.3,30.30,SW,225,1.0,5.0,99,0.00,,,0.76,Wunderground v.1.15,2013-07-14 19:20:00,
2013-07-14 15:25:00,67.8,67.5,30.30,South,170,1.0,5.0,99,0.00,,,0.76,Wunderground v.1.15,2013-07-14 19:25:00,
2013-07-14 15:30:00,68.1,68.1,30.30,WSW,248,0.0,5.0,100,0.00,,,0.76,Wunderground v.1.15,2013-07-14 19:30:00,
2013-07-14 15:35:00,68.3,68.3,30.30,SSW,199,0.0,5.0,100,0.00,,,0.76,Wunderground v.1.15,2013-07-14 19:35:00,
2013-07-14 15:40:00,68.3,68.3,30.29,SSW,211,1.0,5.0,100,0.00,,,0.76,Wunderground v.1.15,2013-07-14 19:40:00,
2013-07-14 15:45:00,68.7,68.7,30.29,SSW,211,1.0,1.0,100,0.00,,,0.76,Wunderground v.1.15,2013-07-14 19:45:00,
2013-07-14 15:50:00,69.5,69.5,30.28,SSW,211,0.0,5.0,100,0.00,,,0.76,Wunderground v.1.15,2013-07-14 19:50:00,
2013-07-14 15:55:00,69.7,69.7,30.28,West,276,1.0,5.0,100,0.00,,,0.76,Wunderground v.1.15,2013-07-14 19:55:00,
2013-07-14 16:05:00,68.9,68.6,30.28,SW,215,1.0,1.0,99,0.00,,,0.76,Wunderground v.1.15,2013-07-14 20:05:00,
2013-07-14 16:10:00,68.6,68.3,30.29,SW,216,1.0,5.0,99,0.90,,,0.87,Wunderground v.1.15,2013-07-14 20:10:00,
2013-07-14 16:15:00,68.4,68.1,30.28,WSW,240,1.0,5.0,99,0.21,,,0.89,Wunderground v.1.15,2013-07-14 20:15:00,
2013-07-14 16:20:00,68.1,67.8,30.28,SSW,206,1.0,5.0,99,0.09,,,0.89,Wunderground v.1.15,2013-07-14 20:20:00,
2013-07-14 16:30:00,69.1,68.8,30.28,SW,226,1.0,5.0,99,0.04,,,0.89,Wunderground v.1.15,2013-07-14 20:30:00,
2013-07-14 16:35:00,68.9,68.6,30.28,North,355,1.0,5.0,99,0.00,,,0.89,Wunderground v.1.15,2013-07-14 20:35:00,
2013-07-14 16:40:00,68.6,68.3,30.29,SE,143,1.0,5.0,99,0.00,,,0.89,Wunderground v.1.15,2013-07-14 20:40:00,
2013-07-14 16:45:00,68.2,67.6,30.28,East,101,1.0,5.0,98,0.00,,,0.89,Wunderground v.1.15,2013-07-14 20:45:00,
2013-07-14 16:50:00,67.7,67.1,30.29,West,265,2.0,5.0,98,0.00,,,0.89,Wunderground v.1.15,2013-07-14 20:50:00,
2013-07-14 16:55:00,67.6,67.0,30.28,SW,217,1.0,1.0,98,0.00,,,0.89,Wunderground v.1.15,2013-07-14 20:55:00,
2013-07-14 17:05:00,67.3,66.7,30.29,SW,218,0.0,5.0,98,0.00,,,0.89,Wunderground v.1.15,2013-07-14 21:05:00,
2013-07-14 17:10:00,66.9,66.3,30.29,SW,218,0.0,5.0,98,0.00,,,0.89,Wunderground v.1.15,2013-07-14 21:10:00,
2013-07-14 17:15:00,66.6,66.0,30.29,SW,234,0.0,5.0,98,0.00,,,0.89,Wunderground v.1.15,2013-07-14 21:15:00,
2013-07-14 17:20:00,66.4,65.5,30.29,SW,234,0.0,5.0,97,0.00,,,0.89,Wunderground v.1.15,2013-07-14 21:20:00,
2013-07-14 17:25:00,66.1,65.2,30.29,ESE,123,0.0,5.0,97,0.00,,,0.89,Wunderground v.1.15,2013-07-14 21:25:00,
2013-07-14 17:30:00,66.0,65.4,30.30,SW,225,0.0,5.0,98,0.00,,,0.89,Wunderground v.1.15,2013-07-14 21:30:00,
2013-07-14 17:35:00,65.9,65.3,30.30,SW,222,0.0,5.0,98,0.00,,,0.89,Wunderground v.1.15,2013-07-14 21:35:00,
2013-07-14 17:40:00,65.9,65.3,30.30,SW,222,0.0,5.0,98,0.00,,,0.89,Wunderground v.1.15,2013-07-14 21:40:00,
2013-07-14 17:45:00,66.1,65.5,30.30,SW,222,0.0,5.0,98,0.00,,,0.89,Wunderground v.1.15,2013-07-14 21:45:00,
2013-07-14 17:50:00,66.5,66.2,30.30,SW,222,0.0,5.0,99,0.00,,,0.89,Wunderground v.1.15,2013-07-14 21:50:00,
2013-07-14 17:55:00,66.8,66.5,30.30,SW,222,0.0,5.0,99,0.00,,,0.89,Wunderground v.1.15,2013-07-14 21:55:00,
2013-07-14 18:05:00,67.1,66.8,30.30,SW,222,0.0,5.0,99,0.00,,,0.89,Wunderground v.1.15,2013-07-14 22:05:00,
2013-07-14 18:10:00,67.4,67.1,30.29,SW,222,0.0,5.0,99,0.00,,,0.89,Wunderground v.1.15,2013-07-14 22:10:00,
2013-07-14 18:15:00,67.7,67.4,30.29,SW,222,0.0,5.0,99,0.00,,,0.89,Wunderground v.1.15,2013-07-14 22:15:00,
2013-07-14 18:20:00,67.9,67.6,30.29,SW,222,0.0,5.0,99,0.00,,,0.89,Wunderground v.1.15,2013-07-14 22:20:00,
2013-07-14 18:25:00,68.1,67.5,30.29,South,173,0.0,5.0,98,0.00,,,0.89,Wunderground v.1.15,2013-07-14 22:25:00,
2013-07-14 18:30:00,68.1,67.2,30.29,South,184,0.0,5.0,97,0.00,,,0.89,Wunderground v.1.15,2013-07-14 22:30:00,
2013-07-14 18:35:00,68.2,67.0,30.29,South,184,0.0,5.0,96,0.00,,,0.89,Wunderground v.1.15,2013-07-14 22:35:00,
2013-07-14 18:45:00,68.6,67.1,30.29,South,180,1.0,1.0,95,0.00,,,0.89,Wunderground v.1.15,2013-07-14 22:45:00,
2013-07-14 18:50:00,69.0,67.8,30.29,South,180,0.0,5.0,96,0.00,,,0.89,Wunderground v.1.15,2013-07-14 22:50:00,
2013-07-14 18:55:00,69.2,67.7,30.30,South,180,0.0,5.0,95,0.00,,,0.89,Wunderground v.1.15,2013-07-14 22:55:00,
2013-07-14 19:01:00,69.3,67.5,30.30,South,180,0.0,5.0,94,0.00,,,0.89,Wunderground v.1.15,2013-07-14 23:01:00,
2013-07-14 19:05:00,69.2,67.4,30.30,South,178,0.0,5.0,94,0.00,,,0.89,Wunderground v.1.15,2013-07-14 23:05:00,
2013-07-14 19:10:00,69.4,67.9,30.30,South,178,0.0,5.0,95,0.00,,,0.89,Wunderground v.1.15,2013-07-14 23:10:00,
2013-07-14 19:15:00,69.4,67.9,30.30,South,178,0.0,5.0,95,0.00,,,0.89,Wunderground v.1.15,2013-07-14 23:15:00,
2013-07-14 19:20:00,69.4,67.9,30.30,South,178,0.0,5.0,95,0.00,,,0.89,Wunderground v.1.15,2013-07-14 23:20:00,
2013-07-14 19:25:00,69.3,67.8,30.30,South,178,0.0,5.0,95,0.00,,,0.89,Wunderground v.1.15,2013-07-14 23:25:00,
2013-07-14 19:30:00,69.2,67.7,30.30,South,178,0.0,5.0,95,0.00,,,0.89,Wunderground v.1.15,2013-07-14 23:30:00,
2013-07-14 19:35:00,69.0,67.5,30.32,South,178,0.0,5.0,95,0.00,,,0.89,Wunderground v.1.15,2013-07-14 23:35:00,
2013-07-14 19:40:00,68.3,66.5,30.32,WNW,283,1.0,5.0,94,0.38,,,1.00,Wunderground v.1.15,2013-07-14 23:40:00,
2013-07-14 19:45:00,67.3,65.2,30.32,SW,227,2.0,5.0,93,0.29,,,1.03,Wunderground v.1.15,2013-07-14 23:45:00,
2013-07-14 19:50:00,66.2,64.1,30.32,NW,315,1.0,1.0,93,0.10,,,1.03,Wunderground v.1.15,2013-07-14 23:50:00,
2013-07-14 19:55:00,65.4,63.6,30.32,North,5,2.0,2.0,94,0.06,,,1.03,Wunderground v.1.15,2013-07-14 23:55:00,
2013-07-14 20:05:00,64.5,63.0,30.32,SE,125,1.0,1.0,95,0.04,,,1.04,Wunderground v.1.15,2013-07-15 00:05:00,
2013-07-14 20:10:00,64.3,63.1,30.32,SE,125,0.0,5.0,96,0.04,,,1.04,Wunderground v.1.15,2013-07-15 00:10:00,
2013-07-14 20:15:00,64.2,63.0,30.32,SE,125,0.0,5.0,96,0.04,,,1.04,Wunderground v.1.15,2013-07-15 00:15:00,
2013-07-14 20:20:00,64.1,63.2,30.32,SE,125,0.0,5.0,97,0.00,,,1.04,Wunderground v.1.15,2013-07-15 00:20:00,
2013-07-14 20:25:00,64.1,63.2,30.32,SE,125,0.0,5.0,97,0.00,,,1.04,Wunderground v.1.15,2013-07-15 00:25:00,
2013-07-14 20:30:00,64.1,63.5,30.32,SE,125,0.0,5.0,98,0.00,,,1.04,Wunderground v.1.15,2013-07-15 00:30:00,
2013-07-14 20:35:00,64.0,63.4,30.32,SE,125,0.0,5.0,98,0.00,,,1.04,Wunderground v.1.15,2013-07-15 00:35:00,
2013-07-14 20:40:00,64.0,63.4,30.32,SE,125,0.0,5.0,98,0.00,,,1.04,Wunderground v.1.15,2013-07-15 00:40:00,
2013-07-14 20:45:00,64.0,63.4,30.32,SE,125,0.0,5.0,98,0.00,,,1.04,Wunderground v.1.15,2013-07-15 00:45:00,
2013-07-14 20:50:00,64.0,63.4,30.32,SE,125,0.0,5.0,98,0.00,,,1.04,Wunderground v.1.15,2013-07-15 00:50:00,
2013-07-14 20:55:00,64.0,63.4,30.32,SE,125,0.0,5.0,98,0.00,,,1.04,Wunderground v.1.15,2013-07-15 00:55:00,
2013-07-14 21:05:00,64.2,63.6,30.32,SE,125,0.0,5.0,98,0.00,,,1.04,Wunderground v.1.15,2013-07-15 01:05:00,
2013-07-14 21:10:00,64.3,63.7,30.32,SE,125,0.0,5.0,98,0.00,,,1.04,Wunderground v.1.15,2013-07-15 01:10:00,
2013-07-14 21:15:00,64.4,63.8,30.32,SE,125,0.0,5.0,98,0.00,,,1.04,Wunderground v.1.15,2013-07-15 01:15:00,
2013-07-14 21:20:00,64.4,63.8,30.33,SE,125,0.0,5.0,98,0.00,,,1.04,Wunderground v.1.15,2013-07-15 01:20:00,
2013-07-14 21:25:00,64.4,63.8,30.32,SE,125,0.0,5.0,98,0.00,,,1.04,Wunderground v.1.15,2013-07-15 01:25:00,
2013-07-14 21:30:00,64.4,63.8,30.33,SE,125,0.0,5.0,98,0.00,,,1.04,Wunderground v.1.15,2013-07-15 01:30:00,
2013-07-14 21:35:00,64.4,63.8,30.33,SE,125,0.0,5.0,98,0.00,,,1.04,Wunderground v.1.15,2013-07-15 01:35:00,
2013-07-14 21:40:00,64.4,64.1,30.33,SE,125,0.0,5.0,99,0.00,,,1.04,Wunderground v.1.15,2013-07-15 01:40:00,
2013-07-14 21:45:00,64.4,64.1,30.33,SE,125,0.0,5.0,99,0.00,,,1.04,Wunderground v.1.15,2013-07-15 01:45:00,
2013-07-14 21:50:00,64.4,64.1,30.33,SE,125,0.0,5.0,99,0.00,,,1.04,Wunderground v.1.15,2013-07-15 01:50:00,
2013-07-14 21:55:00,64.5,64.2,30.33,SE,125,0.0,5.0,99,0.00,,,1.04,Wunderground v.1.15,2013-07-15 01:55:00,
2013-07-14 22:05:00,64.7,64.4,30.33,SE,125,0.0,5.0,99,0.00,,,1.04,Wunderground v.1.15,2013-07-15 02:05:00,
2013-07-14 22:10:00,64.8,64.5,30.33,SSE,168,0.0,5.0,99,0.00,,,1.04,Wunderground v.1.15,2013-07-15 02:10:00,
2013-07-14 22:20:00,65.0,64.7,30.34,SSE,168,0.0,5.0,99,0.00,,,1.04,Wunderground v.1.15,2013-07-15 02:20:00,
2013-07-14 22:25:00,65.1,64.8,30.34,SSE,168,0.0,5.0,99,0.00,,,1.04,Wunderground v.1.15,2013-07-15 02:25:00,
2013-07-14 22:30:00,65.3,65.0,30.34,SSE,168,0.0,5.0,99,0.00,,,1.04,Wunderground v.1.15,2013-07-15 02:30:00,
2013-07-14 22:35:00,65.4,65.1,30.34,SSE,151,0.0,5.0,99,0.00,,,1.04,Wunderground v.1.15,2013-07-15 02:35:00,
2013-07-14 22:45:00,65.5,65.2,30.34,SSE,151,0.0,5.0,99,0.00,,,1.04,Wunderground v.1.15,2013-07-15 02:45:00,
2013-07-14 22:50:00,65.5,65.2,30.34,SSW,196,0.0,5.0,99,0.00,,,1.04,Wunderground v.1.15,2013-07-15 02:50:00,
2013-07-14 22:55:00,65.5,65.2,30.34,SSW,196,0.0,5.0,99,0.00,,,1.04,Wunderground v.1.15,2013-07-15 02:55:00,
2013-07-14 23:05:00,65.5,65.2,30.34,SSW,196,0.0,5.0,99,0.00,,,1.04,Wunderground v.1.15,2013-07-15 03:05:00,
2013-07-14 23:10:00,65.6,65.3,30.34,SE,124,0.0,5.0,99,0.00,,,1.04,Wunderground v.1.15,2013-07-15 03:10:00,
2013-07-14 23:15:00,65.6,65.3,30.34,SE,124,0.0,5.0,99,0.00,,,1.04,Wunderground v.1.15,2013-07-15 03:15:00,
2013-07-14 23:20:00,65.7,65.4,30.34,SE,124,0.0,5.0,99,0.00,,,1.04,Wunderground v.1.15,2013-07-15 03:20:00,
2013-07-14 23:25:00,65.8,65.5,30.34,SE,124,0.0,5.0,99,0.63,,,1.10,Wunderground v.1.15,2013-07-15 03:25:00,
2013-07-14 23:30:00,66.0,65.7,30.35,SE,124,0.0,5.0,99,0.34,,,1.16,Wunderground v.1.15,2013-07-15 03:30:00,
2013-07-14 23:35:00,66.1,65.8,30.35,West,266,0.0,5.0,99,1.10,,,1.20,Wunderground v.1.15,2013-07-15 03:35:00,
2013-07-14 23:40:00,66.1,65.8,30.35,NW,318,0.0,5.0,99,0.16,,,1.24,Wunderground v.1.15,2013-07-15 03:40:00,
2013-07-14 23:45:00,66.1,65.8,30.35,SSW,193,0.0,5.0,99,0.07,,,1.24,Wunderground v.1.15,2013-07-15 03:45:00,
2013-07-14 23:50:00,66.0,65.7,30.35,South,169,0.0,5.0,99,0.04,,,1.24,Wunderground v.1.15,2013-07-15 03:50:00,
2013-07-14 23:55:00,66.0,65.7,30.35,South,169,0.0,5.0,99,0.00,,,1.24,Wunderground v.1.15,2013-07-15 03:55:00,